[[{"header":{"parameterUnit":"m.s-1","parameterCategory":1,"la1":30.2991,"la2":30.254,"lo1":-89.0895,"lo2":-89.0444,"dy":0.0017,"dx":0.0017,"nx":28,"ny":28,"refTime":"2025-03-22T09:00:00:Z","depth":0,"parameterNumber":2,"parameterNumberName":"U-component_of_WINDS"},"data":[0,0,0,0,0,0,0,0,0,0,0,0,0,0,0,0,0,0,0,0,0,0,0,0,0,0,0,0,0,0,0,0,0,0,0,0,0,0,0,0,0,0,0,0,0,0,0,0,0,0,0,0,0,0,0,0,0,0,-3.0543,-3.0544,0,-3.06,-3.06,-3.0601,-3.0597,-3.0597,-3.0596,-3.0595,-3.0652,-3.0654,-3.0656,0,0,0,0,0,0,0,0,0,0,0,0,0,-3.0433,-3.0435,-3.0543,-3.0544,-3.0545,-3.06,-3.06,-3.0601,-3.0598,-3.0597,-3.0596,-3.0595,-3.0651,-3.0654,-3.0656,0,0,0,0,0,0,0,0,0,0,0,0,0,-3.0484,-3.0435,-3.0543,-3.055,-3.0551,-3.0599,-3.06,-3.0601,-3.0598,-3.0597,-3.0595,-3.0594,-3.065,-3.0653,-3.0657,-3.0702,0,0,-3.0667,-3.0668,0,0,0,0,0,0,0,0,-3.0481,-3.0488,-3.0548,-3.0549,-3.0551,-3.059,-3.0582,-3.0635,-3.0598,-3.058,-3.0595,-3.0594,-3.0632,-3.0637,-3.065,-3.0705,-3.0707,-3.0667,-3.0669,-3.0671,-3.0672,0,0,0,0,0,0,0,-3.0478,-3.0486,-3.0565,-3.0549,-3.055,-3.055,-3.0556,-3.0592,-3.0612,-3.0581,-3.0581,-3.0588,-3.0633,-3.0647,-3.0651,-3.0708,-3.0667,-3.067,-3.0672,-3.0674,-3.0804,-3.0806,0,0,0,0,0,0,-3.0473,-3.0483,-3.0564,-3.0567,-3.0512,-3.0553,-3.0559,-3.0579,-3.0612,-3.0616,-3.0589,-3.0588,-3.0642,-3.0647,-3.0653,-3.0709,-3.0671,-3.0674,-3.0676,-3.0803,-3.0805,-3.0806,0,0,0,0,0,0,-3.047,-3.048,-3.0561,-3.0525,-3.0535,-3.0556,-3.0578,-3.058,-3.0595,-3.0618,-3.0621,-3.06,-3.0641,-3.0649,-3.069,-3.0711,-3.0676,-3.0679,-3.0801,-3.0803,-3.0805,-3.0821,0,0,0,0,0,0,-3.0467,-3.0479,-3.0496,-3.0525,-3.0537,-3.0597,-3.0579,-3.0582,-3.0601,-3.0599,-3.0629,-3.0632,-3.0641,-3.0685,-3.0694,-3.0715,-3.0681,-3.0799,-3.0802,-3.0805,-3.0818,-3.0823,-3.0827,0,0,0,0,0,-3.0463,-3.0498,-3.0497,-3.0507,-3.0559,-3.0598,-3.0605,-3.0614,-3.0602,-3.062,-3.0635,-3.0631,-3.0708,-3.069,-3.0699,-3.0722,-3.0798,-3.0801,-3.0805,-3.0816,-3.0822,-3.0827,0,0,0,0,0,0,-3.047,-3.0502,-3.0501,-3.0546,-3.057,-3.0598,-3.062,-3.062,-3.0647,-3.0644,-3.0655,-3.0661,-3.0703,-3.0717,-3.0696,-3.0768,-3.0751,-3.0757,-3.0757,-3.0763,-3.0767,-3.0762,-3.0684,0,0,0,0,0,-3.0477,-3.0506,-3.0532,-3.057,-3.0582,-3.0599,-3.0616,-3.0622,-3.0646,-3.0656,-3.0674,-3.0698,-3.0727,-3.0746,-3.0774,-3.0821,-3.0828,-3.0842,-3.0846,-3.085,-3.0853,-3.088,-3.0887,-3.0817,-3.0817,-3.0817,0,0,-3.049,-3.0512,-3.0529,-3.0571,-3.059,-3.062,-3.0607,-3.0639,-3.0662,-3.0661,-3.0701,-3.0716,-3.0743,-3.0788,-3.0808,-3.08,-3.0875,-3.0854,-3.0856,-3.0858,-3.0884,-3.0891,-3.0896,-3.0819,-3.0819,-3.0818,0,0,-3.0531,-3.055,-3.0584,-3.0603,-3.0632,-3.0644,-3.0652,-3.0681,-3.0691,-3.0732,-3.0732,-3.0759,-3.081,-3.0829,-3.0846,-3.0897,-3.0895,-3.0906,-3.0928,-3.0954,-3.096,-3.0964,-3.0982,-3.0989,-3.0911,-3.0911,-3.0911,0,-3.0544,-3.059,-3.0601,-3.0634,-3.0652,-3.0654,-3.0688,-3.0707,-3.0743,-3.0756,-3.0748,-3.0812,-3.083,-3.088,-3.0893,-3.0906,-3.0916,-3.0902,-3.0958,-3.0963,-3.0968,-3.0985,-3.0992,-3.0912,-3.0912,-3.0912,-3.0911,0,-3.0605,-3.0637,-3.0661,-3.0697,-3.0718,-3.0752,-3.0768,-3.0789,-3.0793,-3.0806,-3.0848,-3.0871,-3.0905,-3.0917,-3.0921,-3.0968,-3.0962,-3.0956,-3.0939,-3.0975,-3.0992,-3.0998,-3.0913,-3.0913,-3.0913,-3.0912,0,0,-3.0649,-3.0693,-3.0701,-3.0718,-3.0751,-3.0776,-3.081,-3.0844,-3.0861,-3.0887,-3.0916,-3.096,-3.0955,-3.0974,-3.098,-3.1003,-3.1042,-3.0994,-3.0995,-3.1001,-3.1095,-3.1099,-3.1107,-3.1042,-3.1043,-3.1044,-3.1093,0,-3.0693,-3.0753,-3.0764,-3.0817,-3.0846,-3.085,-3.088,-3.0904,-3.0917,-3.0945,-3.096,-3.0991,-3.0982,-3.0993,-3.1016,-3.1033,-3.1061,-3.103,-3.1068,-3.107,-3.106,-3.1115,-3.1119,-3.1164,-3.1099,-3.1101,-3.1101,0,-3.0751,-3.0779,-3.0834,-3.0865,-3.0878,-3.0904,-3.0937,-3.0963,-3.0991,-3.0999,-3.1022,-3.1027,-3.1063,-3.1046,-3.1096,-3.1074,-3.1091,-3.1102,-3.1104,-3.1106,-3.1086,-3.1119,-3.1178,-3.1184,-3.1112,-3.1111,-3.111,0,-3.0777,-3.0829,-3.0869,-3.0883,-3.092,-3.0939,-3.0955,-3.0982,-3.1002,-3.103,-3.1043,-3.1076,-3.1093,-3.1118,-3.1132,-3.1118,-3.1181,-3.1165,-3.1189,-3.1188,-3.12,-3.1199,-3.1262,-3.1213,-3.1213,-3.1213,-3.1213,0,-3.0823,-3.0857,-3.0881,-3.0905,-3.0944,-3.0958,-3.0995,-3.1011,-3.1035,-3.1063,-3.1069,-3.1095,-3.1112,-3.1141,-3.1152,-3.1192,-3.12,-3.1208,-3.121,-3.1206,-3.1205,-3.1216,-3.1213,-3.1215,-3.1214,-3.1214,-3.1214,0,-3.0857,-3.0875,-3.0919,-3.0951,-3.096,-3.0987,-3.1014,-3.1039,-3.1053,-3.1089,-3.1098,-3.1121,-3.1155,-3.1172,-3.1215,-3.1222,-3.1267,-3.1268,-3.1258,-3.1258,-3.1281,-3.1278,-3.1353,-3.1363,-3.1308,-3.1308,-3.1309,0,-3.0885,-3.0912,-3.0947,-3.0966,-3.0983,-3.1014,-3.1035,-3.1051,-3.1072,-3.1107,-3.1127,-3.1162,-3.119,-3.1245,-3.1266,-3.1299,-3.13,-3.1324,-3.1304,-3.1301,-3.1299,-3.1297,-3.13,-3.1326,-3.1327,-3.1327,-3.1328,0,-3.0933,-3.0941,-3.0971,-3.1004,-3.1029,-3.1056,-3.1082,-3.1098,-3.1117,-3.1141,-3.1177,-3.1199,-3.1244,-3.1278,-3.1313,-3.133,-3.1332,-3.1334,-3.1341,-3.1337,-3.133,-3.1334,-3.1266,-3.1332,-3.1331,-3.1331,-3.1331,-3.1331,-3.0965,-3.0988,-3.1017,-3.1051,-3.1072,-3.1097,-3.1122,-3.1141,-3.117,-3.1208,-3.1216,-3.1253,-3.1282,-3.1329,-3.1348,-3.1378,-3.1372,-3.1383,-3.1385,-3.1387,-3.1388,-3.1326,-3.1384,-3.1384,-3.1384,-3.1384,-3.1384,0,-3.1012,-3.1032,-3.1062,-3.1099,-3.1126,-3.1127,-3.1157,-3.1179,-3.1212,-3.1239,-3.1267,-3.1309,-3.1343,-3.1367,-3.1402,-3.1421,-3.1423,-3.143,-3.1428,-3.1432,-3.1391,-3.1381,-3.1428,-3.1428,-3.1428,-3.1428,-3.1428,-3.1428,-3.104,-3.108,-3.1092,-3.1143,-3.1163,-3.12,-3.1217,-3.124,-3.1262,-3.1308,-3.1336,-3.1352,-3.1378,-3.1416,-3.1447,-3.1454,-3.1466,-3.1472,-3.1478,-3.1439,-3.1435,-3.143,-3.1421,-3.1475,-3.1475,-3.1517,-3.1517,-3.1517]},{"header":{"parameterUnit":"m.s-1","parameterCategory":1,"la1":30.2991,"la2":30.254,"lo1":-89.0895,"lo2":-89.0444,"dy":0.0017,"dx":0.0017,"nx":28,"ny":28,"refTime":"2025-03-22T09:00:00:Z","depth":0,"parameterNumber":3,"parameterNumberName":"V-component_of_WINDS"},"data":[0,0,0,0,0,0,0,0,0,0,0,0,0,0,0,0,0,0,0,0,0,0,0,0,0,0,0,0,0,0,0,0,0,0,0,0,0,0,0,0,0,0,0,0,0,0,0,0,0,0,0,0,0,0,0,0,0,0,6.208,6.208,0,6.2131,6.2131,6.2132,6.213,6.2129,6.2128,6.2128,6.2175,6.2177,6.2179,0,0,0,0,0,0,0,0,0,0,0,0,0,6.1979,6.1981,6.208,6.208,6.2081,6.2131,6.2131,6.2132,6.213,6.2129,6.2128,6.2127,6.2175,6.2177,6.2179,0,0,0,0,0,0,0,0,0,0,0,0,0,6.2025,6.1981,6.208,6.2086,6.2087,6.213,6.2131,6.2132,6.213,6.2129,6.2128,6.2127,6.2174,6.2177,6.218,6.2219,0,0,6.2189,6.219,0,0,0,0,0,0,0,0,6.2023,6.2029,6.2085,6.2086,6.2087,6.2123,6.2113,6.2161,6.213,6.2114,6.2128,6.2126,6.2159,6.2163,6.2174,6.2221,6.2223,6.2189,6.2191,6.2192,6.2193,0,0,0,0,0,0,0,6.202,6.2027,6.21,6.2085,6.2087,6.2086,6.2091,6.2122,6.2141,6.2115,6.2115,6.2121,6.2159,6.2172,6.2175,6.2224,6.2189,6.2191,6.2193,6.2194,6.2308,6.2309,0,0,0,0,0,0,6.2015,6.2024,6.2098,6.2101,6.2052,6.2088,6.2095,6.2112,6.2141,6.2144,6.2122,6.2121,6.2167,6.2172,6.2177,6.2227,6.2192,6.2195,6.2196,6.2306,6.2308,6.2309,0,0,0,0,0,0,6.2013,6.2022,6.2096,6.2063,6.2072,6.2091,6.2111,6.2114,6.2127,6.2146,6.2149,6.2132,6.2167,6.2173,6.2209,6.2228,6.2196,6.2198,6.2305,6.2307,6.2309,6.2325,0,0,0,0,0,0,6.201,6.2021,6.2036,6.2063,6.2074,6.2128,6.2112,6.2116,6.2132,6.2131,6.2156,6.2159,6.2166,6.2205,6.2212,6.2232,6.2201,6.2303,6.2306,6.2308,6.2323,6.2327,6.2331,0,0,0,0,0,6.2007,6.2037,6.2037,6.2046,6.2094,6.2129,6.2135,6.2144,6.2133,6.2149,6.2162,6.2158,6.2225,6.2209,6.2217,6.2237,6.2302,6.2305,6.2308,6.2321,6.2326,6.2331,0,0,0,0,0,0,6.201,6.2041,6.2041,6.2081,6.2103,6.2129,6.2148,6.2149,6.2172,6.217,6.2179,6.2184,6.2221,6.2233,6.2214,6.2278,6.2262,6.2267,6.2269,6.2275,6.2279,6.2276,6.2203,0,0,0,0,0,6.2016,6.2043,6.2068,6.2101,6.2112,6.2129,6.2144,6.215,6.2172,6.218,6.2196,6.2216,6.2242,6.2259,6.2283,6.2325,6.2331,6.2343,6.2347,6.235,6.2354,6.2379,6.2386,6.2319,6.2319,6.2319,0,0,6.2027,6.2047,6.2064,6.2103,6.212,6.2148,6.2136,6.2165,6.2186,6.2184,6.2221,6.2233,6.2256,6.2296,6.2314,6.2307,6.2374,6.2354,6.2356,6.2359,6.2383,6.2389,6.2395,6.2321,6.232,6.232,0,0,6.2063,6.208,6.2112,6.213,6.2158,6.2169,6.2176,6.2203,6.2212,6.2249,6.2249,6.2273,6.2316,6.2334,6.2349,6.2395,6.2393,6.2403,6.2424,6.2448,6.2454,6.2458,6.2477,6.2483,6.2406,6.2406,6.2407,0,6.2073,6.2116,6.2127,6.2158,6.2176,6.2177,6.221,6.2226,6.2259,6.2271,6.2263,6.232,6.2336,6.2381,6.2393,6.2404,6.2413,6.24,6.2452,6.2457,6.2462,6.2479,6.2486,6.2408,6.2407,6.2407,6.2407,0,6.2129,6.2159,6.2181,6.2216,6.2236,6.2267,6.2282,6.2301,6.2305,6.2317,6.2356,6.2375,6.2406,6.2416,6.2419,6.2463,6.2458,6.245,6.2435,6.2469,6.2486,6.2492,6.2409,6.2409,6.2409,6.2408,0,0,6.2167,6.221,6.2218,6.2235,6.2267,6.229,6.2322,6.2353,6.237,6.2393,6.2421,6.2459,6.2454,6.2471,6.2476,6.2497,6.2535,6.2488,6.2488,6.2497,6.2586,6.2593,6.26,6.2534,6.2535,6.2536,6.2585,0,6.2207,6.2265,6.2277,6.2327,6.2356,6.236,6.2388,6.241,6.2423,6.2448,6.2461,6.249,6.248,6.249,6.2511,6.2526,6.2553,6.2522,6.256,6.2561,6.2555,6.2608,6.2614,6.266,6.2591,6.2592,6.2593,0,6.2262,6.229,6.2344,6.2375,6.2387,6.2412,6.2444,6.2468,6.2494,6.2502,6.2522,6.2526,6.2559,6.2542,6.2588,6.2567,6.2583,6.2593,6.2595,6.2599,6.258,6.2616,6.2674,6.2681,6.2603,6.2602,6.2602,0,6.2287,6.2337,6.2377,6.2392,6.2428,6.2446,6.2461,6.2486,6.2506,6.2532,6.2545,6.2574,6.2591,6.2614,6.2625,6.2611,6.2672,6.2655,6.268,6.2679,6.2692,6.2692,6.2756,6.2701,6.27,6.27,6.27,0,6.2332,6.2365,6.239,6.2414,6.2452,6.2465,6.2502,6.2517,6.254,6.2567,6.2571,6.2596,6.261,6.2637,6.2646,6.2684,6.2691,6.2699,6.2701,6.2699,6.2698,6.271,6.2708,6.2702,6.2702,6.2701,6.2701,0,6.2366,6.2383,6.2428,6.246,6.2468,6.2495,6.2522,6.2546,6.256,6.2594,6.2603,6.2624,6.2657,6.2671,6.271,6.2716,6.2761,6.276,6.2753,6.2754,6.2779,6.2777,6.2853,6.2865,6.2801,6.2801,6.2802,0,6.2394,6.242,6.2456,6.2476,6.2493,6.2524,6.2545,6.2559,6.258,6.2613,6.2634,6.2667,6.2695,6.2747,6.2765,6.2796,6.2796,6.2821,6.2801,6.2799,6.2799,6.2798,6.2801,6.2825,6.2826,6.2826,6.2826,0,6.2443,6.2451,6.2481,6.2516,6.2541,6.2568,6.2594,6.261,6.2628,6.2652,6.2687,6.2709,6.2751,6.2784,6.2817,6.2832,6.2833,6.2833,6.2841,6.284,6.2836,6.284,6.2765,6.2831,6.2831,6.283,6.283,6.283,6.2476,6.2501,6.2531,6.2566,6.2588,6.2613,6.2638,6.2656,6.2686,6.2723,6.2729,6.2767,6.2794,6.2838,6.2855,6.2884,6.2878,6.2888,6.2891,6.2894,6.2897,6.283,6.289,6.2889,6.2889,6.2889,6.2889,0,6.2527,6.2547,6.2579,6.2618,6.2645,6.2645,6.2675,6.2698,6.2732,6.2758,6.2786,6.2827,6.286,6.2882,6.2915,6.2935,6.2936,6.2943,6.2943,6.2947,6.2899,6.289,6.2942,6.2942,6.2942,6.2942,6.2942,6.2942,6.2557,6.26,6.2612,6.2666,6.2686,6.2725,6.2742,6.2766,6.2787,6.2834,6.2862,6.2877,6.2901,6.2937,6.2968,6.2973,6.2986,6.2994,6.2999,6.2955,6.2949,6.2944,6.2936,6.2996,6.2996,6.3044,6.3044,6.3045]}]]